Location: Unspecified
(41.5516°N, 88.1098°W)
Time: 22:20:34
(UTC-05:00)

Cosmos 1674 - Visible Passes

Search period start: 24 June 2016 00:00
Search period end: 04 July 2016 00:00
Orbit: 502 x 524 km, 82.5° (Epoch: 23 June)

Date Brightness Start Highest point End Pass type
(mag) Time Alt. Az. Time Alt. Az. Time Alt. Az.
24 Jun 3.2 21:26:40 10° SSE 21:30:16 42° E 21:33:56 10° NNE visible
24 Jun 5.6 23:04:24 10° W 23:06:11 13° WNW 23:07:59 10° NW visible
25 Jun 3.5 21:11:05 10° SSE 21:14:32 33° E 21:18:02 10° NNE visible
25 Jun 5.5 22:47:56 10° WSW 22:50:19 16° WNW 22:52:43 10° NNW visible
26 Jun 5.3 22:31:39 10° WSW 22:34:27 19° WNW 22:37:17 10° NNW visible
27 Jun 5.0 22:15:30 10° SW 22:18:37 23° WNW 22:21:46 10° NNW visible
28 Jun 4.7 21:59:24 10° SW 22:02:46 29° WNW 22:06:11 10° NNW visible
29 Jun 4.3 21:43:24 10° SW 21:46:57 35° WNW 21:50:32 10° N visible
30 Jun 3.9 21:27:26 10° SSW 21:31:07 44° WNW 21:34:51 10° N visible
01 Jul 3.5 21:11:33 10° SSW 21:15:19 57° W 21:19:09 10° N visible
02 Jul 3.0 20:55:42 10° SSW 20:59:31 73° W 21:03:24 10° N visible
